User: anonymous   Login
Location: ????????
(55.0808°N, 38.5463°E)
Time: 23:33:40
(UTC+00:00)
Language:

NOAA 11 - Orbit

View from above orbital plane
View from above orbital plane
View from above satellite
View from above satellite

Ground track
Ground track

The orbit data is extracted from the following two-line orbital elements,

1 19531U 88089A   25109.47039285  .00000169  00000-0  10734-3 0  9991
2 19531  98.5665  65.3032 0012211  75.7949 284.4581 14.15732256887772
Epoch (UTC): 19 April 2025 11:17:21
Eccentricity: 0.0012211
inclination: 98.5665°
perigee height: 831 km
apogee height: 848 km
right ascension of ascending node: 65.3032°
argument of perigee: 75.7949°
revolutions per day: 14.15732256
mean anomaly at epoch: 284.4581°
orbit number at epoch: 88777

The dashed part of the orbit path shows where the satellite is in the earth's shadow,  

DLR